Year,Month,Day,Hour,Minute,Value (Times are PST for windspeed in km/hr)
2016,01,27,00,00,4.30
2016,01,27,00,01,4.40
2016,01,27,00,02,4.90
2016,01,27,00,03,7.50
2016,01,27,00,04,6.30
2016,01,27,00,05,6.90
2016,01,27,00,06,8.00
2016,01,27,00,07,7.30
2016,01,27,00,08,5.20
2016,01,27,00,09,2.30
2016,01,27,00,10,3.40
2016,01,27,00,11,6.90
2016,01,27,00,12,6.60
2016,01,27,00,13,5.20
2016,01,27,00,14,5.40
2016,01,27,00,15,5.30
2016,01,27,00,16,4.10
2016,01,27,00,17,6.20
2016,01,27,00,18,5.90
2016,01,27,00,19,3.50
2016,01,27,00,20,1.40
2016,01,27,00,21,0.90
2016,01,27,00,22,1.20
2016,01,27,00,23,0.70
2016,01,27,00,24,1.10
2016,01,27,00,25,2.40
2016,01,27,00,26,2.00
2016,01,27,00,27,2.10
2016,01,27,00,28,2.80
2016,01,27,00,29,4.60
2016,01,27,00,30,3.90
2016,01,27,00,31,4.20
2016,01,27,00,32,4.60
2016,01,27,00,33,2.70
2016,01,27,00,34,3.70
2016,01,27,00,35,3.80
2016,01,27,00,36,2.30
2016,01,27,00,37,2.20
2016,01,27,00,38,0.70
2016,01,27,00,39,0.50
2016,01,27,00,40,0.80
2016,01,27,00,41,1.00
2016,01,27,00,42,0.90
2016,01,27,00,43,2.30
2016,01,27,00,44,4.70
2016,01,27,00,45,2.70
2016,01,27,00,46,2.20
2016,01,27,00,47,4.30
2016,01,27,00,48,4.80
2016,01,27,00,49,2.50
2016,01,27,00,50,0.50
2016,01,27,00,51,1.50
2016,01,27,00,52,2.60
2016,01,27,00,53,2.70
2016,01,27,00,54,0.90
2016,01,27,00,55,1.00
2016,01,27,00,56,2.70
2016,01,27,00,57,1.60
2016,01,27,00,58,0.10
2016,01,27,00,59,1.10
2016,01,27,01,00,3.00
2016,01,27,01,01,2.40
2016,01,27,01,02,2.00
2016,01,27,01,03,1.00
2016,01,27,01,04,0.80
2016,01,27,01,05,2.60
2016,01,27,01,06,2.90
2016,01,27,01,07,2.70
2016,01,27,01,08,1.00
2016,01,27,01,09,1.60
2016,01,27,01,10,2.00
2016,01,27,01,11,1.30
2016,01,27,01,12,1.00
2016,01,27,01,13,1.10
2016,01,27,01,14,3.00
2016,01,27,01,15,1.60
2016,01,27,01,16,2.00
2016,01,27,01,17,2.70
2016,01,27,01,18,3.20
2016,01,27,01,19,5.20
2016,01,27,01,20,2.70
2016,01,27,01,21,6.00
2016,01,27,01,22,4.60
2016,01,27,01,23,4.70
2016,01,27,01,24,1.30
2016,01,27,01,25,3.60
2016,01,27,01,26,9.20
2016,01,27,01,27,4.20
2016,01,27,01,28,2.30
2016,01,27,01,29,5.10
2016,01,27,01,30,2.90
2016,01,27,01,31,3.60
2016,01,27,01,32,4.90
2016,01,27,01,33,5.40
2016,01,27,01,34,3.30
2016,01,27,01,35,3.30
2016,01,27,01,36,1.80
2016,01,27,01,37,3.40
2016,01,27,01,38,2.10
2016,01,27,01,39,7.90
2016,01,27,01,40,3.80
2016,01,27,01,41,4.60
2016,01,27,01,42,1.40
2016,01,27,01,43,3.80
2016,01,27,01,44,2.40
2016,01,27,01,45,3.70
2016,01,27,01,46,2.40
2016,01,27,01,47,5.70
2016,01,27,01,48,2.60
2016,01,27,01,49,2.60
2016,01,27,01,50,4.70
2016,01,27,01,51,5.20
2016,01,27,01,52,2.60
2016,01,27,01,53,2.20
2016,01,27,01,54,1.70
2016,01,27,01,55,5.40
2016,01,27,01,56,8.00
2016,01,27,01,57,7.00
2016,01,27,01,58,3.60
2016,01,27,01,59,5.80
2016,01,27,02,00,7.20
2016,01,27,02,01,4.20
2016,01,27,02,02,3.60
2016,01,27,02,03,2.90
2016,01,27,02,04,3.40
2016,01,27,02,05,3.20
2016,01,27,02,06,5.00
2016,01,27,02,07,5.40
2016,01,27,02,08,2.70
2016,01,27,02,09,5.00
2016,01,27,02,10,9.70
2016,01,27,02,11,7.80
2016,01,27,02,12,10.30
2016,01,27,02,13,5.50
2016,01,27,02,14,3.50
2016,01,27,02,15,5.80
2016,01,27,02,16,5.80
2016,01,27,02,17,4.10
2016,01,27,02,18,3.80
2016,01,27,02,19,3.90
2016,01,27,02,20,3.80
2016,01,27,02,21,4.30
2016,01,27,02,22,4.60
2016,01,27,02,23,4.00
2016,01,27,02,24,1.40
2016,01,27,02,25,1.00
2016,01,27,02,26,1.40
2016,01,27,02,27,3.70
2016,01,27,02,28,5.40
2016,01,27,02,29,5.50
2016,01,27,02,30,1.40
2016,01,27,02,31,2.30
2016,01,27,02,32,7.20
2016,01,27,02,33,6.40
2016,01,27,02,34,4.00
2016,01,27,02,35,5.70
2016,01,27,02,36,4.00
2016,01,27,02,37,7.80
2016,01,27,02,38,2.60
2016,01,27,02,39,4.00
2016,01,27,02,40,3.70
2016,01,27,02,41,4.00
2016,01,27,02,42,1.90
2016,01,27,02,43,2.40
2016,01,27,02,44,1.90
2016,01,27,02,45,2.80
2016,01,27,02,46,1.60
2016,01,27,02,47,3.60
2016,01,27,02,48,2.70
2016,01,27,02,49,4.80
2016,01,27,02,50,7.60
2016,01,27,02,51,3.70
2016,01,27,02,52,5.10
2016,01,27,02,53,5.40
2016,01,27,02,54,2.50
2016,01,27,02,55,6.60
2016,01,27,02,56,7.90
2016,01,27,02,57,6.60
2016,01,27,02,58,6.00
2016,01,27,02,59,7.10
2016,01,27,03,00,6.00
2016,01,27,03,01,5.80
2016,01,27,03,02,8.00
2016,01,27,03,03,6.20
2016,01,27,03,04,1.60
2016,01,27,03,05,5.30
2016,01,27,03,06,5.80
2016,01,27,03,07,3.80
2016,01,27,03,08,4.20
2016,01,27,03,09,4.90
2016,01,27,03,10,5.90
2016,01,27,03,11,3.80
2016,01,27,03,12,4.30
2016,01,27,03,13,2.30
2016,01,27,03,14,2.50
2016,01,27,03,15,2.30
2016,01,27,03,16,2.70
2016,01,27,03,17,3.60
2016,01,27,03,18,0.50
2016,01,27,03,19,0.20
2016,01,27,03,20,3.00
2016,01,27,03,21,2.30
2016,01,27,03,22,2.30
2016,01,27,03,23,5.40
2016,01,27,03,24,3.90
2016,01,27,03,25,2.20
2016,01,27,03,26,4.30
2016,01,27,03,27,2.40
2016,01,27,03,28,4.80
2016,01,27,03,29,4.40
2016,01,27,03,30,7.70
2016,01,27,03,31,2.70
2016,01,27,03,32,3.20
2016,01,27,03,33,8.00
2016,01,27,03,34,5.50
2016,01,27,03,35,3.50
2016,01,27,03,36,2.70
2016,01,27,03,37,3.50
2016,01,27,03,38,7.20
2016,01,27,03,39,4.30
2016,01,27,03,40,4.30
2016,01,27,03,41,1.10
2016,01,27,03,42,1.60
2016,01,27,03,43,4.10
2016,01,27,03,44,1.60
2016,01,27,03,45,2.70
2016,01,27,03,46,5.10
2016,01,27,03,47,1.50
2016,01,27,03,48,2.10
2016,01,27,03,49,2.40
2016,01,27,03,50,4.90
2016,01,27,03,51,2.40
2016,01,27,03,52,3.00
2016,01,27,03,53,3.90
2016,01,27,03,54,3.70
2016,01,27,03,55,4.00
2016,01,27,03,56,4.90
2016,01,27,03,57,4.70
2016,01,27,03,58,5.50
2016,01,27,03,59,4.70
2016,01,27,04,00,5.30
2016,01,27,04,01,3.20
2016,01,27,04,02,2.60
2016,01,27,04,03,5.10
2016,01,27,04,04,8.10
2016,01,27,04,05,6.40
2016,01,27,04,06,7.20
2016,01,27,04,07,6.40
2016,01,27,04,08,3.10
2016,01,27,04,09,5.80
2016,01,27,04,10,4.30
2016,01,27,04,11,4.20
2016,01,27,04,12,5.90
2016,01,27,04,13,9.70
2016,01,27,04,14,6.70
2016,01,27,04,15,3.50
2016,01,27,04,16,6.30
2016,01,27,04,17,2.70
2016,01,27,04,18,2.40
2016,01,27,04,19,7.60
2016,01,27,04,20,7.70
2016,01,27,04,21,6.70
2016,01,27,04,22,10.20
2016,01,27,04,23,9.40
2016,01,27,04,24,7.60
2016,01,27,04,25,8.80
2016,01,27,04,26,5.50
2016,01,27,04,27,8.90
2016,01,27,04,28,8.60
2016,01,27,04,29,5.60
2016,01,27,04,30,5.80
2016,01,27,04,31,7.10
2016,01,27,04,32,7.20
2016,01,27,04,33,3.30
2016,01,27,04,34,4.90
2016,01,27,04,35,3.90
2016,01,27,04,36,6.20
2016,01,27,04,37,5.30
2016,01,27,04,38,3.90
2016,01,27,04,39,2.60
2016,01,27,04,40,8.00
2016,01,27,04,41,7.00
2016,01,27,04,42,5.20
2016,01,27,04,43,7.90
2016,01,27,04,44,8.90
2016,01,27,04,45,3.20
2016,01,27,04,46,3.60
2016,01,27,04,47,4.80
2016,01,27,04,48,4.80
2016,01,27,04,49,1.00
2016,01,27,04,50,1.90
2016,01,27,04,51,6.80
2016,01,27,04,52,2.40
2016,01,27,04,53,0.80
2016,01,27,04,54,0.70
2016,01,27,04,55,4.90
2016,01,27,04,56,3.70
2016,01,27,04,57,3.80
2016,01,27,04,58,3.60
2016,01,27,04,59,7.10
2016,01,27,05,00,5.10
2016,01,27,05,01,3.20
2016,01,27,05,02,2.10
2016,01,27,05,03,4.40
2016,01,27,05,04,4.60
2016,01,27,05,05,3.60
2016,01,27,05,06,5.20
2016,01,27,05,07,7.20
2016,01,27,05,08,5.90
2016,01,27,05,09,7.60
2016,01,27,05,10,6.80
2016,01,27,05,11,4.70
2016,01,27,05,12,2.90
2016,01,27,05,13,3.00
2016,01,27,05,14,4.30
2016,01,27,05,15,2.50
2016,01,27,05,16,4.10
2016,01,27,05,17,9.20
2016,01,27,05,18,3.80
2016,01,27,05,19,5.50
2016,01,27,05,20,4.80
2016,01,27,05,21,3.80
2016,01,27,05,22,5.10
2016,01,27,05,23,3.90
2016,01,27,05,24,5.10
2016,01,27,05,25,2.20
2016,01,27,05,26,8.50
2016,01,27,05,27,3.00
2016,01,27,05,28,2.50
2016,01,27,05,29,2.60
2016,01,27,05,30,1.10
2016,01,27,05,31,5.80
2016,01,27,05,32,4.30
2016,01,27,05,33,3.60
2016,01,27,05,34,8.90
2016,01,27,05,35,10.20
2016,01,27,05,36,12.80
2016,01,27,05,37,8.80
2016,01,27,05,38,7.30
2016,01,27,05,39,10.30
2016,01,27,05,40,10.90
2016,01,27,05,41,6.40
2016,01,27,05,42,8.00
2016,01,27,05,43,2.50
2016,01,27,05,44,5.80
2016,01,27,05,45,6.30
2016,01,27,05,46,8.20
2016,01,27,05,47,6.40
2016,01,27,05,48,5.80
2016,01,27,05,49,14.10
2016,01,27,05,50,8.50
2016,01,27,05,51,8.50
2016,01,27,05,52,11.50
2016,01,27,05,53,8.90
2016,01,27,05,54,6.00
2016,01,27,05,55,17.80
2016,01,27,05,56,16.80
2016,01,27,05,57,13.20
2016,01,27,05,58,15.80
2016,01,27,05,59,13.60
2016,01,27,06,00,10.30
2016,01,27,06,01,14.20
2016,01,27,06,02,16.20
2016,01,27,06,03,11.70
2016,01,27,06,04,12.60
2016,01,27,06,05,16.70
2016,01,27,06,06,12.80
2016,01,27,06,07,13.80
2016,01,27,06,08,16.60
2016,01,27,06,09,18.20
2016,01,27,06,10,10.70
2016,01,27,06,11,10.50
2016,01,27,06,12,15.50
2016,01,27,06,13,13.20
2016,01,27,06,14,6.60
2016,01,27,06,15,9.20
2016,01,27,06,16,16.40
2016,01,27,06,17,9.50
2016,01,27,06,18,15.90
2016,01,27,06,19,14.00
2016,01,27,06,20,12.30
2016,01,27,06,21,15.30
2016,01,27,06,22,11.40
2016,01,27,06,23,14.80
2016,01,27,06,24,8.20
2016,01,27,06,25,8.50
2016,01,27,06,26,12.00
2016,01,27,06,27,9.20
2016,01,27,06,28,8.10
2016,01,27,06,29,13.10
2016,01,27,06,30,14.20
2016,01,27,06,31,12.90
2016,01,27,06,32,14.90
2016,01,27,06,33,10.20
2016,01,27,06,34,11.10
2016,01,27,06,35,9.20
2016,01,27,06,36,11.00
2016,01,27,06,37,11.70
2016,01,27,06,38,11.70
2016,01,27,06,39,13.40
2016,01,27,06,40,13.50
2016,01,27,06,41,11.70
2016,01,27,06,42,13.70
2016,01,27,06,43,10.70
2016,01,27,06,44,12.20
2016,01,27,06,45,8.90
2016,01,27,06,46,12.50
2016,01,27,06,47,9.20
2016,01,27,06,48,24.00
2016,01,27,06,49,11.30
2016,01,27,06,50,10.10
2016,01,27,06,51,16.30
2016,01,27,06,52,12.60
2016,01,27,06,53,12.90
2016,01,27,06,54,12.80
2016,01,27,06,55,9.20
2016,01,27,06,56,9.80
2016,01,27,06,57,8.30
2016,01,27,06,58,6.00
2016,01,27,06,59,15.00
2016,01,27,07,00,11.30
2016,01,27,07,01,10.60
2016,01,27,07,02,12.40
2016,01,27,07,03,13.20
2016,01,27,07,04,13.10
2016,01,27,07,05,10.90
2016,01,27,07,06,9.40
2016,01,27,07,07,15.50
2016,01,27,07,08,9.30
2016,01,27,07,09,11.90
2016,01,27,07,10,11.00
2016,01,27,07,11,11.00
2016,01,27,07,12,16.10
2016,01,27,07,13,14.20
2016,01,27,07,14,7.30
2016,01,27,07,15,15.00
2016,01,27,07,16,17.20
2016,01,27,07,17,11.10
2016,01,27,07,18,14.00
2016,01,27,07,19,12.50
2016,01,27,07,20,11.30
2016,01,27,07,21,10.30
2016,01,27,07,22,8.80
2016,01,27,07,23,13.20
2016,01,27,07,24,10.70
2016,01,27,07,25,12.90
2016,01,27,07,26,6.70
2016,01,27,07,27,6.50
2016,01,27,07,28,11.50
2016,01,27,07,29,13.20
2016,01,27,07,30,11.80
2016,01,27,07,31,11.60
2016,01,27,07,32,8.50
2016,01,27,07,33,11.50
2016,01,27,07,34,10.70
2016,01,27,07,35,10.90
2016,01,27,07,36,10.00
2016,01,27,07,37,9.00
2016,01,27,07,38,6.00
2016,01,27,07,39,6.70
2016,01,27,07,40,7.20
2016,01,27,07,41,9.10
2016,01,27,07,42,8.20
2016,01,27,07,43,7.50
2016,01,27,07,44,6.90
2016,01,27,07,45,4.10
2016,01,27,07,46,8.90
2016,01,27,07,47,9.10
2016,01,27,07,48,8.80
2016,01,27,07,49,8.30
2016,01,27,07,50,10.80
2016,01,27,07,51,9.70
2016,01,27,07,52,6.00
2016,01,27,07,53,8.40
2016,01,27,07,54,8.70
2016,01,27,07,55,8.30
2016,01,27,07,56,7.90
2016,01,27,07,57,11.60
2016,01,27,07,58,14.70
2016,01,27,07,59,14.90
2016,01,27,08,00,10.90
2016,01,27,08,01,12.90
2016,01,27,08,02,10.10
2016,01,27,08,03,9.80
2016,01,27,08,04,7.60
2016,01,27,08,05,4.30
2016,01,27,08,06,6.20
2016,01,27,08,07,8.70
2016,01,27,08,08,15.80
2016,01,27,08,09,6.30
2016,01,27,08,10,9.10
2016,01,27,08,11,9.00
2016,01,27,08,12,12.30
2016,01,27,08,13,11.70
2016,01,27,08,14,8.30
2016,01,27,08,15,6.50
2016,01,27,08,16,5.10
2016,01,27,08,17,8.40
2016,01,27,08,18,10.30
2016,01,27,08,19,15.90
2016,01,27,08,20,9.70
2016,01,27,08,21,7.20
2016,01,27,08,22,8.90
2016,01,27,08,23,10.80
2016,01,27,08,24,17.90
2016,01,27,08,25,10.10
2016,01,27,08,26,6.70
2016,01,27,08,27,11.30
2016,01,27,08,28,10.90
2016,01,27,08,29,9.40
2016,01,27,08,30,8.50
2016,01,27,08,31,10.60
2016,01,27,08,32,13.50
2016,01,27,08,33,13.40
2016,01,27,08,34,15.20
2016,01,27,08,35,16.70
2016,01,27,08,36,7.80
2016,01,27,08,37,11.50
2016,01,27,08,38,6.70
2016,01,27,08,39,8.00
2016,01,27,08,40,17.90
2016,01,27,08,41,10.30
2016,01,27,08,42,9.20
2016,01,27,08,43,12.80
2016,01,27,08,44,13.00
2016,01,27,08,45,14.40
2016,01,27,08,46,8.20
2016,01,27,08,47,6.10
2016,01,27,08,48,8.20
2016,01,27,08,49,11.40
2016,01,27,08,50,9.70
2016,01,27,08,51,11.90
2016,01,27,08,52,9.30
2016,01,27,08,53,11.90
2016,01,27,08,54,14.80
2016,01,27,08,55,11.60
2016,01,27,08,56,9.90
2016,01,27,08,57,16.10
2016,01,27,08,58,10.60
2016,01,27,08,59,8.70
2016,01,27,09,00,5.30
2016,01,27,09,01,9.70
2016,01,27,09,02,14.70
2016,01,27,09,03,11.00
2016,01,27,09,04,9.40
2016,01,27,09,05,17.50
2016,01,27,09,06,16.30
2016,01,27,09,07,13.80
2016,01,27,09,08,8.80
2016,01,27,09,09,10.60
2016,01,27,09,10,14.20
2016,01,27,09,11,12.60
2016,01,27,09,12,17.70
2016,01,27,09,13,16.80
2016,01,27,09,14,18.40
2016,01,27,09,15,13.60
2016,01,27,09,16,11.50
2016,01,27,09,17,13.00
2016,01,27,09,18,14.80
2016,01,27,09,19,14.60
2016,01,27,09,20,18.20
2016,01,27,09,21,15.30
2016,01,27,09,22,19.30
2016,01,27,09,23,11.50
2016,01,27,09,24,15.10
2016,01,27,09,25,17.80
2016,01,27,09,26,13.50
2016,01,27,09,27,16.50
2016,01,27,09,28,10.80
2016,01,27,09,29,10.00
2016,01,27,09,30,17.80
2016,01,27,09,31,18.70
2016,01,27,09,32,14.20
2016,01,27,09,33,12.40
2016,01,27,09,34,12.40
2016,01,27,09,35,14.10
2016,01,27,09,36,20.80
2016,01,27,09,37,23.00
2016,01,27,09,38,15.90
2016,01,27,09,39,20.70
2016,01,27,09,40,23.60
2016,01,27,09,41,18.80
2016,01,27,09,42,14.20
2016,01,27,09,43,14.70
2016,01,27,09,44,19.90
2016,01,27,09,45,16.30
2016,01,27,09,46,28.20
2016,01,27,09,47,20.20
2016,01,27,09,48,23.90
2016,01,27,09,49,15.50
2016,01,27,09,50,12.00
2016,01,27,09,51,19.20
2016,01,27,09,52,19.80
2016,01,27,09,53,16.60
2016,01,27,09,54,16.20
2016,01,27,09,55,25.70
2016,01,27,09,56,21.50
2016,01,27,09,57,22.60
2016,01,27,09,58,19.50
2016,01,27,09,59,13.20
2016,01,27,10,00,12.50
2016,01,27,10,01,11.90
2016,01,27,10,02,16.50
2016,01,27,10,03,18.20
2016,01,27,10,04,13.90
2016,01,27,10,05,11.90
2016,01,27,10,06,7.40
2016,01,27,10,07,12.00
2016,01,27,10,08,18.40
2016,01,27,10,09,22.20
2016,01,27,10,10,23.60
2016,01,27,10,11,17.60
2016,01,27,10,12,23.70
2016,01,27,10,13,17.20
2016,01,27,10,14,17.80
2016,01,27,10,15,15.90
2016,01,27,10,16,16.20
2016,01,27,10,17,17.20
2016,01,27,10,18,17.20
2016,01,27,10,19,15.50
2016,01,27,10,20,13.50
2016,01,27,10,21,16.60
2016,01,27,10,22,13.80
2016,01,27,10,23,9.70
2016,01,27,10,24,16.20
2016,01,27,10,25,15.50
2016,01,27,10,26,13.90
2016,01,27,10,27,16.90
2016,01,27,10,28,16.30
2016,01,27,10,29,27.70
2016,01,27,10,30,24.40
2016,01,27,10,31,18.80
2016,01,27,10,32,20.60
2016,01,27,10,33,24.60
2016,01,27,10,34,11.30
2016,01,27,10,35,17.30
2016,01,27,10,36,15.50
2016,01,27,10,37,12.50
2016,01,27,10,38,10.70
2016,01,27,10,39,15.40
2016,01,27,10,40,16.60
2016,01,27,10,41,13.50
2016,01,27,10,42,12.50
2016,01,27,10,43,21.00
2016,01,27,10,44,15.80
2016,01,27,10,45,16.00
2016,01,27,10,46,15.80
2016,01,27,10,47,19.00
2016,01,27,10,48,11.20
2016,01,27,10,49,13.40
2016,01,27,10,50,17.00
2016,01,27,10,51,20.60
2016,01,27,10,52,13.30
2016,01,27,10,53,26.50
2016,01,27,10,54,18.90
2016,01,27,10,55,20.40
2016,01,27,10,56,20.60
2016,01,27,10,57,15.30
2016,01,27,10,58,21.90
2016,01,27,10,59,24.90
2016,01,27,11,00,18.20
2016,01,27,11,01,22.80
2016,01,27,11,02,24.70
2016,01,27,11,03,20.90
2016,01,27,11,04,18.40
2016,01,27,11,05,24.10
2016,01,27,11,06,17.60
2016,01,27,11,07,25.90
2016,01,27,11,08,23.00
2016,01,27,11,09,21.90
2016,01,27,11,10,16.30
2016,01,27,11,11,20.30
2016,01,27,11,12,24.00
2016,01,27,11,13,20.60
2016,01,27,11,14,12.50
2016,01,27,11,15,28.20
2016,01,27,11,16,24.40
2016,01,27,11,17,28.10
2016,01,27,11,18,23.20
2016,01,27,11,19,22.20
2016,01,27,11,20,21.50
2016,01,27,11,21,15.60
2016,01,27,11,22,21.50
2016,01,27,11,23,15.20
2016,01,27,11,24,21.20
2016,01,27,11,25,19.40
2016,01,27,11,26,22.10
2016,01,27,11,27,30.70
2016,01,27,11,28,27.70
2016,01,27,11,29,23.80
2016,01,27,11,30,12.60
2016,01,27,11,31,14.10
2016,01,27,11,32,22.10
2016,01,27,11,33,17.00
2016,01,27,11,34,22.70
2016,01,27,11,35,20.20
2016,01,27,11,36,22.30
2016,01,27,11,37,20.10
2016,01,27,11,38,23.10
2016,01,27,11,39,17.50
2016,01,27,11,40,23.70
2016,01,27,11,41,24.30
2016,01,27,11,42,19.70
2016,01,27,11,43,22.60
2016,01,27,11,44,20.60
2016,01,27,11,45,26.60
2016,01,27,11,46,23.90
2016,01,27,11,47,18.00
2016,01,27,11,48,18.50
2016,01,27,11,49,16.80
2016,01,27,11,50,22.70
2016,01,27,11,51,16.10
2016,01,27,11,52,21.70
2016,01,27,11,53,18.10
2016,01,27,11,54,24.00
2016,01,27,11,55,16.30
2016,01,27,11,56,15.10
2016,01,27,11,57,21.40
2016,01,27,11,58,26.90
2016,01,27,11,59,23.40
2016,01,27,12,00,22.20
2016,01,27,12,01,18.30
2016,01,27,12,02,16.00
2016,01,27,12,03,17.90
2016,01,27,12,04,23.60
2016,01,27,12,05,24.90
2016,01,27,12,06,23.70
2016,01,27,12,07,22.40
2016,01,27,12,08,14.10
2016,01,27,12,09,11.00
2016,01,27,12,10,24.90
2016,01,27,12,11,16.40
2016,01,27,12,12,27.40
2016,01,27,12,13,23.00
2016,01,27,12,14,13.80
2016,01,27,12,15,16.70
2016,01,27,12,16,14.00
2016,01,27,12,17,17.70
2016,01,27,12,18,22.50
2016,01,27,12,19,21.30
2016,01,27,12,20,23.80
2016,01,27,12,21,24.30
2016,01,27,12,22,22.00
2016,01,27,12,23,23.10
2016,01,27,12,24,15.00
2016,01,27,12,25,16.50
2016,01,27,12,26,22.60
2016,01,27,12,27,21.40
2016,01,27,12,28,20.60
2016,01,27,12,29,22.20
2016,01,27,12,30,24.10
2016,01,27,12,31,18.80
2016,01,27,12,32,12.50
2016,01,27,12,33,24.70
2016,01,27,12,34,23.00
2016,01,27,12,35,19.60
2016,01,27,12,36,18.10
2016,01,27,12,37,24.60
2016,01,27,12,38,17.70
2016,01,27,12,39,11.80
2016,01,27,12,40,15.50
2016,01,27,12,41,21.10
2016,01,27,12,42,16.40
2016,01,27,12,43,23.60
2016,01,27,12,44,18.10
2016,01,27,12,45,17.20
2016,01,27,12,46,13.50
2016,01,27,12,47,21.10
2016,01,27,12,48,12.50
2016,01,27,12,49,19.10
2016,01,27,12,50,20.00
2016,01,27,12,51,22.20
2016,01,27,12,52,23.10
2016,01,27,12,53,19.40
2016,01,27,12,54,11.50
2016,01,27,12,55,15.00
2016,01,27,12,56,15.70
2016,01,27,12,57,19.50
2016,01,27,12,58,19.90
2016,01,27,12,59,20.80
2016,01,27,13,00,14.20
2016,01,27,13,01,19.80
2016,01,27,13,02,20.00
2016,01,27,13,03,16.00
2016,01,27,13,04,16.60
2016,01,27,13,05,23.70
2016,01,27,13,06,16.60
2016,01,27,13,07,16.00
2016,01,27,13,08,18.80
2016,01,27,13,09,16.70
2016,01,27,13,10,19.80
2016,01,27,13,11,18.50
2016,01,27,13,12,19.90
2016,01,27,13,13,22.20
2016,01,27,13,14,27.80
2016,01,27,13,15,27.20
2016,01,27,13,16,19.50
2016,01,27,13,17,17.60
2016,01,27,13,18,20.80
2016,01,27,13,19,19.70
2016,01,27,13,20,15.90
2016,01,27,13,21,13.80
2016,01,27,13,22,21.70
2016,01,27,13,23,25.20
2016,01,27,13,24,10.00
2016,01,27,13,25,12.50
2016,01,27,13,26,25.90
2016,01,27,13,27,16.70
2016,01,27,13,28,18.50
2016,01,27,13,29,13.50
2016,01,27,13,30,14.20
2016,01,27,13,31,13.70
2016,01,27,13,32,13.40
2016,01,27,13,33,16.00
2016,01,27,13,34,13.20
2016,01,27,13,35,16.70
2016,01,27,13,36,16.90
2016,01,27,13,37,18.20
2016,01,27,13,38,16.10
2016,01,27,13,39,20.70
2016,01,27,13,40,13.90
2016,01,27,13,41,12.80
2016,01,27,13,42,21.00
2016,01,27,13,43,25.30
2016,01,27,13,44,29.60
2016,01,27,13,45,17.60
2016,01,27,13,46,19.40
2016,01,27,13,47,26.70
2016,01,27,13,48,22.50
2016,01,27,13,49,22.70
2016,01,27,13,50,16.70
2016,01,27,13,51,18.90
2016,01,27,13,52,18.70
2016,01,27,13,53,21.40
2016,01,27,13,54,16.50
2016,01,27,13,55,22.40
2016,01,27,13,56,20.60
2016,01,27,13,57,24.40
2016,01,27,13,58,20.40
2016,01,27,13,59,20.30
2016,01,27,14,00,21.00
2016,01,27,14,01,17.40
2016,01,27,14,02,18.80
2016,01,27,14,03,21.60
2016,01,27,14,04,26.50
2016,01,27,14,05,18.80
2016,01,27,14,06,20.30
2016,01,27,14,07,26.40
2016,01,27,14,08,19.80
2016,01,27,14,09,16.50
2016,01,27,14,10,16.30
2016,01,27,14,11,20.90
2016,01,27,14,12,15.60
2016,01,27,14,13,19.50
2016,01,27,14,14,18.70
2016,01,27,14,15,15.10
2016,01,27,14,16,19.10
2016,01,27,14,17,14.20
2016,01,27,14,18,27.10
2016,01,27,14,19,16.70
2016,01,27,14,20,16.90
2016,01,27,14,21,15.50
2016,01,27,14,22,21.80
2016,01,27,14,23,20.10
2016,01,27,14,24,21.20
2016,01,27,14,25,21.60
2016,01,27,14,26,14.40
2016,01,27,14,27,17.60
2016,01,27,14,28,14.70
2016,01,27,14,29,25.80
2016,01,27,14,30,16.40
2016,01,27,14,31,18.20
2016,01,27,14,32,19.10
2016,01,27,14,33,17.60
2016,01,27,14,34,20.80
2016,01,27,14,35,20.00
2016,01,27,14,36,22.00
2016,01,27,14,37,11.90
2016,01,27,14,38,14.80
2016,01,27,14,39,14.20
2016,01,27,14,40,15.40
2016,01,27,14,41,24.00
2016,01,27,14,42,18.80
2016,01,27,14,43,12.60
2016,01,27,14,44,16.70
2016,01,27,14,45,15.50
2016,01,27,14,46,11.70
2016,01,27,14,47,24.40
2016,01,27,14,48,6.90
2016,01,27,14,49,12.30
2016,01,27,14,50,8.50
2016,01,27,14,51,11.90
2016,01,27,14,52,9.40
2016,01,27,14,53,13.20
2016,01,27,14,54,14.00
2016,01,27,14,55,14.10
2016,01,27,14,56,16.60
2016,01,27,14,57,16.20
2016,01,27,14,58,9.20
2016,01,27,14,59,14.40
2016,01,27,15,00,16.20
2016,01,27,15,01,11.10
2016,01,27,15,02,12.50
2016,01,27,15,03,16.40
2016,01,27,15,04,14.10
2016,01,27,15,05,16.10
2016,01,27,15,06,13.90
2016,01,27,15,07,12.80
2016,01,27,15,08,14.20
2016,01,27,15,09,13.40
2016,01,27,15,10,13.60
2016,01,27,15,11,10.70
2016,01,27,15,12,13.10
2016,01,27,15,13,19.60
2016,01,27,15,14,17.80
2016,01,27,15,15,19.10
2016,01,27,15,16,17.20
2016,01,27,15,17,10.60
2016,01,27,15,18,17.50
2016,01,27,15,19,16.60
2016,01,27,15,20,15.40
2016,01,27,15,21,17.90
2016,01,27,15,22,19.00
2016,01,27,15,23,21.00
2016,01,27,15,24,14.60
2016,01,27,15,25,17.40
2016,01,27,15,26,19.00
2016,01,27,15,27,15.60
2016,01,27,15,28,11.60
2016,01,27,15,29,16.90
2016,01,27,15,30,11.90
2016,01,27,15,31,11.30
2016,01,27,15,32,15.40
2016,01,27,15,33,15.10
2016,01,27,15,34,13.40
2016,01,27,15,35,15.30
2016,01,27,15,36,15.80
2016,01,27,15,37,13.10
2016,01,27,15,38,16.40
2016,01,27,15,39,20.40
2016,01,27,15,40,16.00
2016,01,27,15,41,12.80
2016,01,27,15,42,17.90
2016,01,27,15,43,13.20
2016,01,27,15,44,14.10
2016,01,27,15,45,10.30
2016,01,27,15,46,12.90
2016,01,27,15,47,9.80
2016,01,27,15,48,11.50
2016,01,27,15,49,17.30
2016,01,27,15,50,24.60
2016,01,27,15,51,20.00
2016,01,27,15,52,19.10
2016,01,27,15,53,16.10
2016,01,27,15,54,17.00
2016,01,27,15,55,15.70
2016,01,27,15,56,20.60
2016,01,27,15,57,11.40
2016,01,27,15,58,18.50
2016,01,27,15,59,18.50
2016,01,27,16,00,18.00
2016,01,27,16,01,17.80
2016,01,27,16,02,18.40
2016,01,27,16,03,23.00
2016,01,27,16,04,11.60
2016,01,27,16,05,13.20
2016,01,27,16,06,18.90
2016,01,27,16,07,23.30
2016,01,27,16,08,19.10
2016,01,27,16,09,25.40
2016,01,27,16,10,17.10
2016,01,27,16,11,18.20
2016,01,27,16,12,17.90
2016,01,27,16,13,20.90
2016,01,27,16,14,14.80
2016,01,27,16,15,21.60
2016,01,27,16,16,18.20
2016,01,27,16,17,20.40
2016,01,27,16,18,22.50
2016,01,27,16,19,19.50
2016,01,27,16,20,20.40
2016,01,27,16,21,15.60
2016,01,27,16,22,17.10
2016,01,27,16,23,16.20
2016,01,27,16,24,17.30
2016,01,27,16,25,17.50
2016,01,27,16,26,12.70
2016,01,27,16,27,17.20
2016,01,27,16,28,15.40
2016,01,27,16,29,19.50
2016,01,27,16,30,19.30
2016,01,27,16,31,13.30
2016,01,27,16,32,11.60
2016,01,27,16,33,14.00
2016,01,27,16,34,11.40
2016,01,27,16,35,17.00
2016,01,27,16,36,11.40
2016,01,27,16,37,16.30
2016,01,27,16,38,17.50
2016,01,27,16,39,17.30
2016,01,27,16,40,15.10
2016,01,27,16,41,14.70
2016,01,27,16,42,13.30
2016,01,27,16,43,12.40
2016,01,27,16,44,18.20
2016,01,27,16,45,14.30
2016,01,27,16,46,14.40
2016,01,27,16,47,19.90
2016,01,27,16,48,14.80
2016,01,27,16,49,14.20
2016,01,27,16,50,20.40
2016,01,27,16,51,15.10
2016,01,27,16,52,23.40
2016,01,27,16,53,15.70
2016,01,27,16,54,16.60
2016,01,27,16,55,14.30
2016,01,27,16,56,16.00
2016,01,27,16,57,21.80
2016,01,27,16,58,12.50
2016,01,27,16,59,16.70
2016,01,27,17,00,17.00
2016,01,27,17,01,19.80
2016,01,27,17,02,17.50
2016,01,27,17,03,14.50
2016,01,27,17,04,13.90
2016,01,27,17,05,14.80
2016,01,27,17,06,12.90
2016,01,27,17,07,16.90
2016,01,27,17,08,21.90
2016,01,27,17,09,20.20
2016,01,27,17,10,17.10
2016,01,27,17,11,15.70
2016,01,27,17,12,11.20
2016,01,27,17,13,15.30
2016,01,27,17,14,12.60
2016,01,27,17,15,9.90
2016,01,27,17,16,8.30
2016,01,27,17,17,14.50
2016,01,27,17,18,12.50
2016,01,27,17,19,11.90
2016,01,27,17,20,7.90
2016,01,27,17,21,12.60
2016,01,27,17,22,7.70
2016,01,27,17,23,17.10
2016,01,27,17,24,16.30
2016,01,27,17,25,8.20
2016,01,27,17,26,7.50
2016,01,27,17,27,6.70
2016,01,27,17,28,6.20
2016,01,27,17,29,10.70
2016,01,27,17,30,12.00
2016,01,27,17,31,11.40
2016,01,27,17,32,13.60
2016,01,27,17,33,9.40
2016,01,27,17,34,9.50
2016,01,27,17,35,11.50
2016,01,27,17,36,7.20
2016,01,27,17,37,7.90
2016,01,27,17,38,8.40